GFSGBSN_sfc_rhum_000.txt.gz
RH
74 71 72 74 74 74 73 72 75 75 76 77 78 79 80 81 81 81 81 84 85 84 83 82 82 80 51 20 10 16 55 57 25 23 11 10 7 8 6 7 8 10 10 9 10 15 16
74 74 74 75 74 72 76 73 74 75 77 78 79 81 83 83 82 82 82 85 86 83 82 82 79 80 36 14 7 14 20 25 16 14 10 7 6 5 6 7 8 8 9 9 10 14 17
75 74 72 74 75 74 77 74 75 75 78 78 80 80 82 82 81 81 83 86 85 83 83 81 79 55 31 11 8 10 12 12 14 12 9 7 6 5 6 8 7 8 12 17 15 16 21
75 72 72 74 76 77 77 77 75 74 77 80 80 79 79 80 81 84 87 88 86 84 83 85 79 47 20 12 13 14 12 12 12 14 10 8 6 7 6 8 8 10 11 15 17 19 22
73 74 71 75 76 79 80 77 76 76 78 82 82 81 83 84 85 87 88 89 86 83 78 79 58 43 16 28 16 12 12 10 10 11 10 7 7 8 7 10 11 11 14 14 22 20 26
70 73 75 77 76 79 80 79 78 78 80 83 85 85 85 85 86 87 87 89 78 84 69 55 48 43 19 11 13 11 13 8 9 12 12 10 9 8 8 8 13 14 14 13 15 22 23
74 74 76 76 77 78 79 77 76 77 79 83 85 85 85 85 86 86 68 25 30 34 44 17 11 14 9 9 10 10 11 8 7 10 9 8 8 8 8 9 9 10 13 14 13 17 22
74 76 76 77 77 78 78 76 78 78 78 82 85 85 85 85 84 84 53 11 17 16 12 7 7 8 7 8 11 8 8 12 10 11 8 8 8 6 6 8 9 11 12 13 12 18 20
75 78 78 78 80 81 82 82 83 81 83 85 85 84 85 87 84 58 21 16 16 12 12 7 7 8 8 8 11 10 8 10 11 10 8 9 6 5 6 7 10 11 12 13 15 20 19
77 82 83 80 81 82 84 84 82 81 84 85 85 84 85 88 48 23 17 18 18 16 12 9 11 11 13 12 14 9 7 9 10 10 8 7 5 6 7 9 9 12 9 11 14 18 23
82 82 83 83 82 83 84 84 84 82 84 84 84 84 86 89 39 22 18 16 16 17 17 10 11 10 12 14 11 12 7 8 10 10 9 9 6 7 7 7 7 11 9 11 12 16 19
80 81 80 80 79 81 85 86 85 84 84 85 84 84 84 38 38 26 19 20 20 20 18 10 11 13 13 12 11 12 11 8 7 9 10 9 6 5 6 5 6 8 10 12 12 13 21
80 80 79 80 80 83 85 86 85 85 86 85 85 83 77 41 18 20 21 13 14 14 11 10 10 10 10 8 10 11 13 12 12 17 15 10 8 5 4 7 6 8 12 19 21 19 20
82 83 82 82 82 83 84 85 85 85 87 86 85 85 55 34 30 29 21 9 18 10 9 10 10 10 12 9 9 10 12 11 10 10 10 13 12 8 6 6 8 10 11 15 27 18 16
86 85 84 83 82 83 84 84 84 85 84 87 86 26 24 26 36 31 18 10 11 10 8 7 7 10 10 9 9 10 11 11 9 9 14 12 13 6 6 6 6 10 12 9 12 12 12
85 84 84 84 85 84 84 82 84 84 83 86 52 33 22 25 40 33 17 15 8 5 7 9 11 9 10 8 10 10 10 9 9 8 9 12 16 9 7 6 6 7 8 13 12 25 24
81 84 82 81 83 83 82 82 83 85 86 85 43 27 27 39 40 32 20 11 8 5 6 8 9 9 10 10 11 10 10 9 8 9 11 10 14 11 9 8 8 8 9 12 11 13 18
80 82 83 82 82 82 80 81 83 87 89 67 38 24 28 33 32 19 18 12 21 7 5 5 7 7 8 10 12 12 11 10 8 9 13 12 12 16 9 6 5 6 10 11 14 24 14
81 80 79 80 82 79 79 80 84 86 86 50 43 27 16 26 22 15 17 15 13 13 8 7 6 7 7 10 14 11 9 7 7 10 12 12 15 19 16 7 6 7 7 9 10 12 22
79 80 79 79 78 78 77 80 83 84 84 56 43 27 17 30 21 30 28 31 24 13 13 10 9 8 8 10 10 13 12 8 9 9 56 26 12 18 14 15 8 10 7 7 8 12 15
74 74 75 75 78 78 77 80 84 82 81 58 40 30 41 25 29 43 43 37 31 22 16 15 16 15 12 15 14 14 13 12 13 29 22 23 29 18 13 10 9 9 7 7 8 10 14
76 76 75 75 76 76 76 80 83 79 81 71 62 50 52 48 44 39 37 33 31 24 25 24 22 14 13 17 16 15 12 14 13 13 15 16 30 24 21 13 12 11 9 7 7 7 8
76 75 75 76 74 75 75 78 82 82 86 74 51 46 57 46 35 38 30 28 29 33 28 23 25 28 28 22 20 18 17 19 19 19 21 24 25 33 29 16 16 18 13 10 8 7 8
77 77 76 75 75 74 74 73 78 83 88 96 65 54 82 49 29 35 32 35 35 37 44 33 28 31 26 21 20 18 17 19 20 21 20 32 39 31 28 28 34 14 10 10 9 7 7
75 74 76 78 77 76 76 74 74 80 83 99 94 90 94 76 40 38 37 37 35 38 42 45 32 24 22 25 27 30 23 27 23 19 21 24 32 31 31 27 23 19 17 12 12 11 7
77 75 73 73 76 77 76 75 75 76 84 96 97 91 97 82 40 38 40 52 47 44 37 34 34 29 27 25 27 41 28 25 25 23 21 23 31 30 31 33 36 34 36 34 32 27 10
76 77 75 74 76 78 75 74 71 73 81 96 97 89 97 99 45 40 41 38 35 39 39 38 56 40 37 46 34 30 24 18 22 31 38 36 36 29 31 36 30 42 36 32 42 24 11
78 77 78 78 78 77 75 74 72 72 70 92 97 88 98 98 75 53 40 45 56 54 52 46 50 52 53 78 50 27 24 22 21 26 42 42 38 29 34 46 43 42 33 47 48 39 34
77 75 78 80 78 76 74 73 70 73 74 85 94 80 91 99 70 47 42 37 40 34 40 44 51 53 40 66 55 59 56 35 31 27 33 33 27 29 35 30 54 46 54 44 36 39 35

GFSGBSN_sfc_rhum_006.txt.gz
RH
73 71 71 74 76 78 77 75 75 76 75 76 77 80 81 80 78 77 77 79 80 81 82 80 80 81 46 18 16 14 69 59 23 15 11 11 9 11 12 11 10 9 13 12 9 10 11
72 74 74 76 76 76 77 77 75 76 75 75 76 79 82 84 82 79 79 82 84 81 81 80 81 83 38 15 7 14 11 16 10 10 10 11 8 9 10 10 10 8 8 9 8 9 10
74 72 75 74 76 78 79 79 77 77 77 77 77 78 81 82 80 79 83 84 83 80 80 82 82 57 21 10 7 6 7 9 9 9 8 8 7 8 8 9 7 7 9 8 8 8 11
79 76 75 75 77 78 79 78 79 81 82 82 82 81 82 83 83 83 84 84 84 80 82 83 80 44 19 5 6 7 6 8 7 7 7 6 6 6 7 6 7 7 8 11 9 9 10
80 79 78 76 79 82 82 81 80 82 83 83 82 84 84 85 85 83 83 83 82 79 84 74 62 38 16 17 9 7 6 7 6 6 7 6 6 6 6 8 9 9 11 11 10 9 10
79 80 78 76 78 83 83 83 82 82 83 83 83 84 84 85 84 83 84 82 64 77 71 43 32 29 19 11 8 6 6 6 7 7 7 8 7 8 7 9 12 11 11 10 12 12 10
77 78 75 75 79 83 83 83 83 82 82 83 83 85 85 84 83 83 66 25 26 37 38 23 17 12 7 9 6 8 7 8 7 7 10 10 10 11 10 9 9 9 10 10 10 12 12
79 77 77 81 83 82 83 84 83 83 84 84 84 85 86 84 83 76 57 20 9 10 11 7 10 13 11 7 9 8 6 9 8 10 9 8 10 7 7 8 9 9 11 11 10 12 13
82 83 84 84 85 85 83 83 83 84 85 84 84 84 85 84 78 52 19 9 8 8 11 8 6 6 8 9 8 6 7 9 7 8 10 9 6 5 6 8 10 10 10 11 11 11 11
84 85 85 86 85 85 84 84 83 84 85 84 83 84 85 87 42 22 15 10 6 6 13 8 5 5 4 5 6 4 4 7 9 8 7 8 6 5 6 8 8 11 8 9 9 14 19
85 85 86 86 86 86 85 85 84 84 85 84 84 84 85 87 45 29 12 8 8 9 18 6 5 4 4 5 5 5 4 5 7 8 8 8 7 6 6 6 7 10 8 9 9 11 18
85 86 85 86 86 87 87 87 86 86 86 84 85 86 86 40 30 25 16 10 10 15 18 7 6 7 6 5 6 6 5 5 6 6 8 8 5 5 4 4 5 6 8 8 9 10 18
85 86 86 87 87 89 88 88 87 87 87 86 87 87 78 44 28 12 12 11 15 17 8 8 7 8 8 8 7 8 8 9 9 11 12 8 7 4 4 5 5 6 8 15 16 15 17
84 85 86 87 87 88 88 88 88 87 88 88 87 83 56 31 24 24 18 16 24 12 11 6 6 7 9 9 8 7 9 10 8 8 9 11 11 6 5 5 6 6 7 13 25 18 15
84 84 84 85 84 84 86 87 87 88 88 88 86 35 29 17 16 18 21 18 17 14 9 8 7 7 8 7 7 7 9 9 7 7 12 9 10 6 5 5 4 6 8 6 11 11 13
80 81 82 83 84 86 87 87 87 88 88 86 55 43 32 19 13 17 24 28 13 9 8 8 10 8 9 8 8 8 8 8 8 6 6 9 12 6 6 5 5 5 5 8 9 22 23
78 79 81 83 84 85 86 86 87 88 88 84 54 33 16 11 14 26 28 22 18 12 11 12 11 9 8 8 8 8 8 6 6 7 7 7 10 9 7 8 8 6 6 7 7 10 17
78 80 80 80 81 81 82 83 86 88 88 67 37 37 13 16 28 28 30 24 26 16 12 11 10 10 9 8 9 8 9 8 5 5 8 8 8 13 9 6 5 6 7 7 10 21 12
80 80 80 80 80 81 81 82 84 87 87 54 45 34 19 16 30 23 20 19 18 18 18 16 14 10 8 9 13 10 9 5 5 6 8 8 11 16 12 8 7 7 6 6 6 9 19
79 78 78 79 80 79 79 81 84 85 83 63 58 40 22 18 18 20 21 20 18 12 14 15 18 15 13 12 9 12 10 7 5 6 44 19 10 17 13 15 10 12 8 7 7 9 12
73 73 74 76 77 77 80 81 84 84 81 68 52 44 30 42 33 38 56 42 40 33 21 25 30 26 22 21 14 11 8 8 7 14 13 10 20 14 10 9 9 9 8 7 9 10 12
75 74 73 74 74 76 78 82 83 81 80 84 94 62 56 45 34 31 37 43 37 38 27 28 39 34 34 42 45 51 30 18 12 9 10 9 21 18 16 10 10 10 9 7 7 8 9
75 74 73 73 73 74 76 78 83 84 78 91 71 73 90 66 40 30 24 25 39 28 30 29 26 36 46 40 41 35 27 21 18 19 16 17 15 25 24 14 13 15 12 10 8 6 7
78 76 74 74 74 74 75 74 78 84 83 94 89 91 99 82 44 42 29 24 30 39 32 33 34 61 42 30 34 32 22 19 18 17 11 21 26 22 23 23 29 13 9 8 9 9 7
78 76 75 74 74 74 74 74 74 81 85 97 95 97 99 97 53 53 34 32 42 60 40 27 23 24 21 33 61 53 30 28 22 17 16 16 25 26 29 28 22 17 13 14 14 15 11
80 80 77 75 74 77 77 74 74 76 81 81 96 96 97 99 58 41 54 46 44 41 40 35 26 19 28 35 81 91 85 46 27 22 17 17 35 28 29 32 35 24 21 18 19 26 24
80 80 79 76 75 73 74 73 72 72 79 79 92 86 98 100 76 52 48 56 58 56 65 50 62 37 32 31 60 90 78 44 43 30 29 28 34 31 30 29 22 31 24 20 34 32 31
83 78 78 78 73 74 76 72 71 71 73 73 78 82 94 97 73 56 45 48 45 64 93 79 88 58 36 35 37 44 51 38 32 30 32 33 28 29 34 40 45 24 33 35 38 31 28
81 79 78 78 77 75 73 71 70 72 70 70 91 82 84 100 70 48 43 36 35 37 38 45 74 82 83 62 75 74 64 58 48 43 23 28 22 24 27 27 33 32 39 33 28 33 35

GFSGBSN_sfc_rhum_009.txt.gz
RH
73 74 75 76 80 80 78 77 77 78 77 76 76 78 78 78 78 79 78 80 82 80 78 79 79 81 74 44 26 11 69 68 44 28 18 14 12 13 16 16 14 16 16 13 15 17 17
76 74 75 74 77 78 78 78 77 78 78 77 79 80 83 83 82 81 81 82 82 81 78 79 79 82 80 30 8 8 26 33 20 18 16 13 13 12 14 15 14 12 12 15 13 13 18
79 76 75 76 77 79 79 78 78 78 78 79 80 81 83 83 81 81 84 84 83 79 77 78 81 69 49 21 7 18 14 20 18 13 12 12 12 14 12 15 11 10 12 10 11 12 14
83 80 77 77 80 82 83 79 79 81 82 82 82 83 83 84 83 84 83 84 83 78 77 79 80 67 57 12 11 10 8 9 12 11 11 9 10 12 12 11 11 12 12 15 11 11 12
79 80 81 81 81 82 84 84 83 84 83 84 84 83 83 84 84 84 84 83 81 75 75 79 88 82 46 21 16 11 8 10 10 10 11 8 9 12 11 13 16 14 15 14 13 10 15
81 81 80 80 81 84 84 83 84 82 83 84 84 83 83 83 83 83 84 79 68 69 80 59 45 57 37 19 10 10 9 9 9 9 9 11 14 14 12 14 19 17 16 13 14 14 16
82 82 80 82 84 84 85 84 84 82 82 83 83 82 83 83 82 82 76 60 42 51 54 42 37 24 12 10 9 10 8 8 9 10 14 12 17 17 14 10 11 12 12 13 11 14 17
83 84 84 85 86 86 86 85 84 84 83 82 84 84 84 84 83 78 78 51 23 12 16 10 10 17 18 17 16 9 8 11 12 15 13 13 16 13 11 11 10 11 13 13 11 13 18
85 86 86 86 87 87 88 87 86 86 85 85 86 84 84 85 80 65 30 23 14 10 17 11 9 9 8 12 19 14 10 11 13 14 12 14 15 11 10 11 12 12 13 13 14 13 16
85 86 86 87 87 87 88 88 87 87 87 87 86 84 85 89 52 42 32 18 13 10 23 13 9 7 7 7 12 11 9 11 13 13 11 12 10 10 10 9 10 15 11 11 12 13 22
86 86 86 86 87 87 88 89 89 88 87 86 86 85 85 88 70 56 26 23 18 16 32 9 8 5 6 7 9 11 9 10 12 13 11 11 12 11 10 7 7 12 11 11 11 14 26
86 85 85 86 88 88 88 88 88 88 87 87 87 86 86 60 50 42 30 22 21 29 30 11 6 7 7 7 7 6 10 7 8 11 11 11 8 7 9 8 6 6 10 12 12 15 20
84 85 85 86 87 86 85 86 87 88 88 89 89 88 84 61 57 22 36 28 30 28 12 11 10 8 7 8 7 6 7 8 10 12 12 9 9 9 6 9 7 6 11 17 21 22 25
82 82 82 84 84 85 86 88 88 89 90 90 91 87 70 42 41 45 45 34 36 19 16 11 10 9 10 8 7 6 9 9 8 9 14 14 14 10 8 8 9 8 8 14 29 25 22
81 81 82 82 83 85 86 87 88 89 90 89 90 51 45 34 29 36 42 47 27 20 14 12 13 13 12 10 11 9 10 9 8 8 14 13 14 10 8 7 7 9 9 8 15 20 25
79 80 81 82 83 83 84 84 85 87 88 88 81 61 51 33 27 32 42 47 26 15 16 19 25 16 20 15 12 13 11 10 11 9 9 13 22 10 8 7 7 6 9 11 9 17 23
79 81 82 83 83 83 83 84 84 86 88 86 75 52 28 18 19 36 46 38 28 20 19 21 22 22 19 17 15 14 11 10 8 9 8 9 12 12 12 10 9 9 8 9 11 11 18
80 82 82 82 82 82 83 83 84 88 89 71 56 61 25 24 38 30 35 32 37 27 23 24 23 24 24 20 18 15 13 10 7 8 11 9 11 15 12 9 8 7 10 9 17 18 20
78 79 79 79 80 81 82 84 84 87 87 71 67 54 32 28 42 37 30 26 24 22 20 21 23 22 21 24 28 20 16 9 8 9 10 11 11 18 18 12 9 9 8 10 7 17 18
78 76 76 77 79 79 80 83 85 84 85 77 81 63 37 35 31 34 46 55 55 38 34 28 29 30 32 34 28 31 24 13 8 8 42 28 13 14 17 18 15 18 10 9 9 10 11
75 74 75 76 75 77 78 81 84 85 80 85 94 68 43 68 59 57 57 67 52 46 35 29 43 46 42 55 46 42 45 45 33 31 18 17 16 13 13 12 11 10 12 9 10 9 13
76 77 76 77 77 76 77 79 83 85 82 94 97 83 68 68 56 49 48 39 34 30 43 44 42 52 45 78 71 71 57 55 53 34 36 30 29 27 26 14 11 11 11 11 8 8 10
76 76 75 74 76 74 74 79 82 85 84 95 79 71 95 81 60 56 50 43 50 39 42 36 45 40 54 42 43 53 43 40 43 46 40 36 40 40 26 21 20 19 12 12 13 9 10
79 77 76 76 76 74 73 77 80 82 84 96 95 97 99 86 65 55 45 40 40 41 49 40 45 52 33 37 38 40 37 37 35 34 28 32 35 41 28 34 41 22 15 13 13 15 11
79 78 78 77 76 75 74 75 78 82 84 98 95 100 98 96 70 60 45 45 43 44 41 43 47 41 41 38 52 58 44 36 30 24 24 24 30 41 37 34 30 23 17 19 18 17 23
80 81 80 77 76 75 73 73 75 80 83 90 97 96 99 99 82 54 65 58 58 60 60 46 47 52 55 45 78 86 81 62 51 47 20 20 34 45 39 39 36 29 23 24 25 44 40
78 78 78 77 76 75 73 75 72 72 79 94 97 89 99 100 82 66 70 67 59 70 75 56 72 70 75 46 66 84 75 59 66 58 55 41 42 45 47 35 36 42 35 26 45 60 44
84 83 83 79 77 76 74 73 72 71 73 77 75 88 98 99 81 68 59 62 61 62 85 75 86 89 93 88 44 62 58 52 60 54 51 71 80 44 51 52 50 42 38 43 66 52 57
85 84 83 82 78 74 72 71 70 70 72 76 87 86 92 99 87 64 63 56 53 50 54 91 90 90 95 98 86 85 53 84 81 86 50 71 73 76 43 55 58 50 54 63 63 73 71

GFSGBSN_sfc_rhum_015.txt.gz
RH
75 75 75 76 79 80 78 77 77 79 78 77 77 78 78 78 77 77 76 78 79 80 79 78 76 77 87 59 26 10 61 66 56 35 27 23 21 22 18 19 18 34 28 20 18 19 34
78 77 77 77 78 79 80 80 78 78 79 80 81 82 83 83 82 79 80 82 83 80 79 78 76 76 81 15 8 13 15 44 39 37 33 24 20 18 18 17 18 18 18 18 17 15 32
80 79 78 78 79 81 82 82 81 80 80 81 83 84 84 84 84 83 82 82 82 80 79 79 76 77 86 13 9 14 21 29 39 30 29 26 18 15 17 18 17 18 20 16 15 14 29
84 81 80 80 82 85 86 85 85 86 86 85 84 84 84 85 84 84 83 82 83 81 79 76 77 83 51 24 24 15 11 12 22 28 18 20 20 20 22 19 17 17 19 22 16 16 17
85 84 83 82 84 87 87 87 87 88 87 86 86 86 85 85 85 84 83 84 81 76 76 78 87 93 45 36 38 25 15 11 12 20 23 15 18 21 21 23 23 21 25 21 17 13 26
80 81 82 79 83 87 88 88 87 87 86 86 87 87 86 86 85 85 83 84 78 82 78 70 65 68 38 17 29 20 20 11 14 17 21 20 19 23 24 24 30 24 22 20 18 15 27
79 80 79 79 83 87 88 87 86 86 86 86 87 87 87 86 85 82 88 77 40 42 70 48 52 39 22 18 18 19 14 13 16 19 25 22 28 30 23 20 18 18 19 19 16 16 31
80 80 80 80 84 85 85 85 86 86 87 87 87 87 87 87 85 84 79 39 40 42 48 27 26 23 21 22 19 16 12 14 18 21 20 22 24 22 19 19 18 17 18 17 14 14 20
79 82 82 84 85 85 84 85 86 87 87 87 87 86 87 89 85 69 66 47 38 46 41 20 18 17 16 19 23 18 16 16 19 22 19 21 19 16 17 19 18 19 19 16 16 17 21
82 86 85 83 84 84 84 85 86 86 87 87 87 86 86 90 59 83 53 46 44 46 30 20 16 13 15 20 25 14 19 14 18 18 19 20 14 15 17 18 19 25 16 14 14 20 23
83 82 81 82 82 83 85 86 86 86 86 87 86 86 85 88 94 92 39 49 49 31 41 18 14 11 14 14 13 16 17 18 19 18 20 21 18 16 17 15 17 18 16 16 19 21 27
77 77 77 79 80 83 86 86 86 86 86 87 86 86 86 87 96 81 61 61 41 24 35 17 12 13 14 13 10 16 15 19 16 19 20 17 15 14 16 14 13 16 18 16 24 26 31
76 77 77 80 82 85 86 86 87 87 88 88 87 86 87 73 85 67 65 46 30 35 19 20 24 21 21 14 11 15 18 20 22 25 25 21 16 14 13 17 18 18 19 28 25 30 24
75 80 81 82 83 84 84 85 86 88 88 88 86 88 85 61 80 84 74 38 42 24 24 24 26 23 20 23 15 15 18 21 20 21 24 27 28 18 14 16 18 19 18 30 28 34 24
76 78 79 81 83 83 83 84 85 87 87 90 88 82 96 75 55 72 68 55 37 32 27 31 27 31 35 30 28 28 26 20 19 16 20 27 25 15 13 13 13 17 19 14 20 43 27
74 75 78 81 83 83 83 84 84 86 87 89 97 99 95 64 56 70 79 72 50 33 30 34 39 39 47 39 34 37 32 20 19 21 17 18 22 15 12 13 13 13 13 22 24 24 24
74 75 78 81 82 82 83 83 84 86 88 90 97 96 62 48 56 75 93 82 49 34 30 37 43 45 44 41 36 41 36 28 32 34 27 22 18 16 14 15 15 18 15 19 18 19 19
75 78 81 81 81 82 82 83 84 87 90 89 98 96 50 53 64 81 90 73 54 41 39 41 38 40 43 44 48 39 36 33 36 40 54 45 27 18 15 14 9 10 12 18 18 21 20
79 80 80 80 81 81 81 82 85 88 89 98 100 99 71 60 87 76 65 53 50 52 52 46 45 45 48 54 53 54 50 41 39 42 60 56 51 28 20 24 18 15 14 13 15 19 16
78 77 76 79 80 80 81 82 85 87 87 95 99 96 87 74 72 78 82 61 67 52 48 42 45 51 57 55 61 62 53 46 41 40 51 51 59 43 33 24 21 19 15 13 14 17 15
76 77 76 77 78 80 81 82 85 86 85 94 97 95 92 96 86 94 77 65 73 79 63 49 52 53 66 84 76 70 56 60 47 48 49 61 70 53 44 34 30 23 16 12 15 13 15
78 77 76 77 79 79 79 83 84 86 84 96 96 98 84 86 74 90 81 71 71 68 77 75 61 51 63 79 72 77 68 80 69 54 58 65 66 58 46 30 28 26 16 14 12 12 12
78 76 76 76 77 78 77 80 83 85 87 98 95 94 97 93 83 81 81 76 68 63 65 69 53 58 57 56 65 60 60 59 58 67 65 67 69 66 63 40 38 31 19 15 12 13 12
77 76 76 75 76 75 76 78 80 84 86 97 97 97 100 94 80 75 65 68 67 69 73 59 50 69 54 62 55 57 72 66 62 63 57 69 70 68 65 57 50 24 22 13 13 15 15
78 77 77 76 76 75 75 75 76 82 85 99 98 99 99 98 76 73 70 70 74 76 75 66 51 52 63 74 77 82 73 79 62 48 55 57 58 69 61 69 46 27 28 26 15 17 22
78 78 78 76 76 76 74 73 74 80 83 97 99 98 98 100 90 80 94 78 92 82 84 73 59 64 83 96 92 90 84 81 68 56 45 51 50 50 62 65 56 42 48 51 48 19 47
80 80 80 78 77 76 74 72 73 74 82 95 98 97 98 100 80 78 81 92 78 88 90 87 81 84 89 96 99 96 94 73 73 80 67 65 75 72 57 60 52 61 82 57 47 26 49
82 81 80 79 77 76 75 75 74 73 75 91 97 98 98 98 76 67 64 77 78 87 90 84 90 90 96 88 91 96 97 79 78 70 77 79 82 92 61 71 78 78 79 89 90 92 78
85 84 84 85 80 77 76 76 75 75 76 80 97 95 98 100 90 75 70 65 65 67 73 90 88 91 93 97 99 99 92 94 90 92 79 85 78 92 64 74 74 80 76 89 91 97 95

GFSGBSN_sfc_rhum_021.txt.gz
RH
80 78 78 79 82 82 81 80 80 82 80 78 78 80 80 80 79 78 78 80 82 80 80 79 78 77 71 40 12 43 68 65 67 53 51 52 59 52 48 51 49 58 39 32 28 26 22
78 78 78 77 78 78 80 80 78 79 79 79 80 83 84 84 82 80 81 82 82 80 80 79 76 72 62 11 5 23 39 59 58 50 45 47 52 41 36 24 39 30 27 17 18 19 16
79 78 77 75 75 77 79 78 77 77 78 78 80 82 83 83 81 81 82 82 82 81 81 80 76 70 66 10 9 15 40 49 48 38 46 35 33 38 21 18 16 16 16 13 12 13 14
78 77 75 70 73 78 78 77 76 77 78 79 79 80 81 81 82 82 82 83 84 84 82 79 76 67 28 15 14 12 29 33 45 30 25 25 22 27 18 14 14 16 15 15 11 12 16
76 78 77 73 72 76 77 77 76 78 82 83 83 83 83 83 83 83 83 86 81 77 78 77 75 73 19 34 19 11 12 24 35 31 20 18 17 19 17 17 15 15 16 17 14 12 23
76 77 74 73 75 77 80 80 80 82 83 84 85 84 84 84 84 82 85 80 77 75 70 65 60 54 25 17 21 17 9 23 25 26 23 20 19 22 19 17 18 17 16 15 17 13 16
74 74 75 75 76 77 79 80 79 81 83 84 85 85 85 84 83 83 69 40 32 38 37 48 47 34 27 15 21 20 9 11 17 22 22 22 21 24 20 17 14 13 13 15 13 12 18
75 75 76 76 76 77 76 78 80 82 84 85 85 85 85 86 83 85 49 34 40 40 49 29 31 30 30 24 19 19 10 10 14 19 20 25 23 17 16 18 16 14 14 15 14 12 13
75 76 76 76 76 77 78 80 83 84 84 85 85 85 85 86 87 59 56 44 42 44 51 29 28 23 20 19 22 17 11 10 13 15 18 20 17 16 20 19 18 15 13 14 15 13 12
73 78 79 78 79 80 82 84 84 84 84 84 84 84 84 88 53 62 36 46 48 49 34 22 19 18 18 17 21 14 13 12 12 15 15 14 14 19 20 20 16 14 11 12 15 16 18
70 77 78 79 80 80 83 84 84 85 85 84 84 85 85 88 74 62 38 49 47 48 21 18 14 12 16 16 14 17 12 13 12 12 16 17 19 20 22 19 16 14 12 13 14 15 16
71 73 72 76 76 80 84 84 84 85 85 85 85 86 87 72 72 60 55 55 47 28 30 20 12 14 18 15 13 16 16 14 12 14 13 13 14 15 16 16 17 14 16 16 18 15 22
73 70 74 77 80 83 84 84 85 86 86 86 86 87 83 65 45 43 56 45 29 32 20 25 23 21 21 17 13 17 19 20 18 20 21 16 16 13 13 15 15 15 15 20 20 20 20
70 73 79 82 83 84 84 84 85 86 86 86 86 88 68 58 51 53 49 27 36 23 28 26 26 24 21 25 20 20 19 19 17 13 14 19 22 15 13 15 16 17 14 14 24 17 15
69 76 80 82 84 84 84 85 86 86 87 87 88 61 51 45 43 50 41 28 32 43 43 40 29 31 29 28 26 24 21 17 18 16 17 18 17 14 12 12 12 17 19 11 14 18 16
74 77 80 83 84 84 85 85 86 87 88 88 76 70 50 42 45 48 40 51 51 48 44 36 42 36 39 34 30 27 28 37 27 29 29 20 23 14 14 12 12 14 12 17 14 22 21
74 77 81 84 83 84 84 85 87 88 89 87 75 60 33 43 40 41 51 54 51 46 48 43 42 42 38 40 34 32 41 36 35 36 33 27 20 18 16 16 16 16 16 15 13 14 14
76 80 82 82 83 84 84 85 87 89 91 79 75 56 40 43 42 49 48 54 54 46 51 47 38 42 43 40 37 38 45 42 31 38 42 38 20 21 18 13 11 13 15 15 16 27 16
79 80 80 80 82 83 83 85 87 90 90 87 87 73 46 38 66 66 60 55 42 52 58 65 52 45 42 46 43 44 45 41 33 39 45 35 32 28 22 15 14 16 14 14 12 14 26
75 76 75 78 80 81 83 84 88 89 88 73 75 64 51 51 57 60 66 58 57 47 62 80 72 46 48 49 46 47 45 38 35 40 51 38 35 33 23 23 26 26 17 15 14 17 18
76 76 75 76 77 78 82 83 86 88 84 77 90 76 73 69 55 60 65 67 62 59 50 58 95 92 68 59 50 52 49 42 36 46 36 36 38 37 32 30 27 27 23 20 20 18 20
77 77 76 76 76 78 79 82 84 86 83 86 89 86 87 82 67 68 64 60 64 56 60 55 92 74 80 89 56 62 57 53 48 40 39 37 37 44 36 26 24 27 24 23 21 20 19
77 78 78 77 76 75 76 80 82 84 82 93 90 82 98 95 75 89 60 57 59 59 55 56 80 78 60 53 51 45 42 42 42 47 48 46 41 42 36 31 30 30 24 21 20 19 18
78 78 77 77 77 76 76 79 80 82 86 92 91 96 99 80 92 68 58 56 60 59 78 58 53 62 49 40 39 32 41 42 41 39 40 50 51 38 32 35 40 21 19 24 23 19 15
78 77 78 78 77 76 76 76 79 81 85 96 95 99 95 91 61 59 56 58 58 57 61 59 53 49 46 56 50 46 46 54 42 36 39 47 46 34 31 32 28 24 21 39 46 25 31
78 78 78 77 76 76 76 74 76 85 85 96 96 95 99 99 67 57 66 66 73 68 63 59 47 47 55 74 65 69 41 41 37 45 38 40 50 44 36 30 33 26 24 41 51 39 55
78 79 80 78 77 76 76 75 75 85 87 96 96 90 100 99 80 63 70 77 66 73 82 60 56 54 68 73 59 68 54 44 38 34 59 59 57 54 46 43 28 23 37 58 61 38 63
85 84 84 84 81 79 78 78 77 78 88 94 89 94 98 98 83 70 66 71 66 75 88 59 70 74 90 87 78 66 77 58 60 37 38 54 65 68 48 47 47 24 29 39 62 65 65
85 85 84 85 84 83 80 79 81 84 85 91 99 95 95 100 86 60 59 57 58 55 66 88 75 73 79 92 90 92 74 67 71 65 46 57 45 64 40 34 35 36 49 57 67 71 69

GFSGBSN_sfc_rhum_024.txt.gz
RH
77 74 76 72 72 78 77 75 75 75 75 76 76 77 78 78 77 77 77 80 80 79 80 79 77 75 53 22 8 15 64 56 42 24 23 26 31 27 25 25 27 35 24 21 20 18 17
72 73 73 70 73 75 75 75 74 75 76 76 77 79 81 81 80 79 80 81 82 81 81 80 75 72 33 16 4 5 18 27 29 24 23 22 25 20 21 22 26 21 24 21 13 12 13
77 76 70 70 71 75 76 75 75 76 77 77 79 81 83 82 82 82 82 83 81 83 85 84 76 54 34 12 5 6 18 24 26 24 22 18 19 23 17 21 14 19 20 13 11 11 12
77 72 72 72 73 75 76 76 76 78 80 82 82 83 84 84 83 82 82 85 85 86 80 79 77 46 25 10 8 12 16 23 26 22 17 18 19 21 17 12 12 14 13 14 12 11 10
72 73 75 71 73 76 78 76 76 80 83 83 83 84 84 83 82 83 84 86 83 78 77 76 55 39 19 25 10 7 17 22 25 22 20 17 19 20 18 19 14 11 14 15 14 11 12
71 70 71 73 74 75 79 79 79 81 82 83 83 84 84 83 82 83 87 82 81 73 57 52 38 38 19 12 10 6 15 12 26 24 21 20 19 14 15 17 19 15 14 13 15 12 12
73 73 73 74 74 75 78 79 78 80 81 83 83 84 83 82 84 85 56 25 31 43 28 30 26 19 17 11 13 8 8 14 20 24 19 14 14 15 11 12 11 11 12 13 12 12 13
72 73 74 75 75 75 76 78 82 82 82 83 83 83 83 82 85 85 36 22 33 33 33 17 17 18 20 19 18 10 8 16 16 23 14 15 16 10 9 9 11 12 12 12 12 11 12
70 74 74 76 77 77 78 81 84 84 83 83 83 83 84 84 86 47 28 34 28 28 30 16 15 14 15 15 17 13 8 11 14 16 13 14 12 10 10 12 13 12 13 12 13 12 11
73 74 72 79 79 81 83 84 84 84 84 84 84 82 84 89 47 31 26 24 28 30 29 12 16 16 14 14 17 11 6 9 11 14 12 11 10 12 12 12 11 13 9 10 10 12 16
74 73 72 79 80 81 84 84 84 85 85 85 84 82 85 91 41 30 30 26 29 33 16 13 13 11 12 14 11 12 10 7 8 10 11 14 12 12 13 13 11 11 6 8 10 11 13
74 72 74 78 78 82 85 85 85 86 86 86 84 84 86 42 31 27 25 29 34 29 18 14 11 13 14 14 12 11 14 8 7 9 10 11 8 9 11 10 10 9 9 9 10 10 15
69 71 76 78 81 84 85 85 86 86 87 87 85 85 71 36 31 25 26 30 23 18 12 19 17 14 13 12 14 13 16 17 17 16 15 12 10 10 9 12 11 11 11 14 14 13 14
72 75 79 83 84 84 85 85 86 87 87 86 86 86 54 30 23 26 29 25 26 15 25 22 21 19 18 13 13 12 16 16 14 12 11 14 15 11 10 12 13 13 11 10 20 11 10
73 77 81 84 84 84 85 85 86 87 87 86 87 25 24 22 24 30 31 20 16 38 34 33 23 22 17 17 17 15 14 15 13 12 15 14 14 8 9 10 10 14 14 7 8 10 10
75 76 80 83 83 84 85 85 86 87 88 87 43 28 23 20 22 29 29 32 30 31 32 29 32 26 28 24 22 18 14 20 14 11 13 14 17 10 9 9 9 10 10 11 9 19 18
75 76 81 82 82 83 84 85 86 87 88 86 32 28 23 21 20 20 24 28 28 23 30 33 34 33 30 30 26 20 21 26 22 16 24 15 14 13 11 12 12 11 11 11 8 9 12
74 79 81 81 82 82 83 85 87 89 90 60 32 25 24 22 23 25 29 35 43 26 25 32 31 28 32 31 30 28 30 29 25 26 26 17 15 18 13 9 8 9 12 12 12 19 11
77 79 79 80 81 80 82 85 88 90 90 48 41 35 24 23 34 34 32 32 29 31 42 45 46 37 32 35 39 32 34 28 25 27 29 22 19 20 17 12 11 11 11 10 10 10 19
76 74 74 78 80 80 81 84 87 89 87 54 41 35 25 27 29 38 42 37 35 28 35 33 84 53 44 30 30 36 32 27 24 26 46 34 21 21 17 18 14 16 12 11 11 13 13
76 74 74 75 77 78 80 82 85 88 85 55 41 38 47 43 41 47 49 37 41 46 33 30 83 91 87 51 33 33 35 29 25 31 25 25 30 27 20 21 18 13 12 12 13 14 15
78 77 77 76 76 77 79 82 83 84 83 49 48 52 49 63 51 44 49 44 40 43 43 42 51 66 60 92 63 60 45 35 34 29 28 23 32 30 28 21 20 19 17 14 13 12 13
77 78 78 77 77 77 78 82 83 84 80 60 53 51 74 60 54 49 44 49 53 44 40 39 40 43 43 52 52 43 33 31 32 37 33 32 27 33 30 21 21 25 19 18 16 15 15
76 77 77 76 76 76 77 80 81 85 91 96 70 76 90 63 48 53 45 45 51 55 64 44 38 43 37 32 32 28 24 24 26 27 24 36 35 28 25 29 38 19 13 14 16 15 14
77 77 77 77 76 76 76 76 78 80 92 99 94 93 92 80 47 46 48 47 46 49 47 41 37 38 35 40 39 35 26 30 26 22 24 26 33 28 30 28 22 18 17 18 20 19 14
78 80 79 77 76 78 75 74 77 80 86 99 98 96 90 96 57 44 54 53 51 50 45 41 32 31 35 44 43 53 28 27 25 24 18 23 35 30 27 32 32 20 14 22 21 29 18
79 81 83 79 79 78 77 77 75 79 84 99 99 95 96 98 74 60 65 63 57 56 56 43 41 39 37 60 47 37 32 25 28 29 34 26 35 37 30 29 22 16 23 33 37 47 39
84 84 85 85 84 82 81 79 80 81 83 97 98 97 98 98 74 54 48 58 60 66 76 48 53 56 58 75 49 32 37 37 32 25 26 31 32 29 30 32 32 15 18 32 47 47 41
86 86 86 86 87 84 81 82 83 84 86 90 100 98 97 100 82 56 51 51 51 53 64 80 49 51 41 65 80 71 53 46 49 38 26 34 26 27 26 25 26 20 24 27 28 35 43

GFSGBSN_sfc_rhum_030.txt.gz
RH
72 72 71 73 74 75 75 75 75 75 75 75 76 79 81 80 77 77 78 80 80 79 79 79 78 76 63 33 17 9 66 55 22 11 14 14 20 24 29 23 20 20 35 31 50 39 13
70 72 73 73 74 75 75 75 75 75 77 78 80 82 82 82 82 81 80 81 83 79 84 86 80 76 45 33 12 9 16 22 12 11 13 12 15 18 23 22 19 17 16 24 29 28 14
73 73 73 73 74 75 76 76 75 76 76 79 82 82 83 82 82 81 81 82 81 81 86 84 82 60 31 23 10 5 8 18 13 12 12 10 10 16 20 22 16 15 19 17 17 16 14
73 73 73 73 74 77 78 77 77 81 82 83 83 83 83 82 81 81 82 83 82 79 82 77 81 53 32 13 15 12 4 10 11 12 11 8 9 12 16 17 17 17 16 22 17 16 13
72 73 72 73 76 80 82 82 82 82 83 83 84 84 84 82 81 81 82 83 78 77 76 73 64 42 27 22 16 11 6 7 11 14 13 9 10 13 14 20 23 18 21 20 19 14 14
71 71 72 74 76 81 82 82 83 83 84 84 84 84 83 82 81 81 83 78 60 77 68 45 38 39 26 16 12 11 9 6 11 14 17 15 14 15 16 18 29 23 19 16 20 15 13
73 72 73 75 77 81 82 83 84 84 84 84 84 84 84 82 82 82 59 16 15 34 18 28 26 22 13 12 8 10 9 7 11 16 23 19 21 21 17 17 17 17 15 14 12 12 14
73 73 75 77 82 84 84 84 84 85 84 84 85 85 84 82 84 80 49 17 16 15 21 14 14 13 14 14 13 9 8 10 15 22 21 22 24 18 14 14 16 16 16 13 10 9 11
72 74 80 83 84 84 84 85 86 86 85 84 84 84 82 84 81 41 14 16 10 12 21 15 10 10 10 10 14 11 8 9 14 20 23 24 19 15 16 16 15 16 17 14 12 9 9
74 80 82 83 83 83 84 86 86 85 84 83 82 81 81 87 41 21 14 10 9 11 22 11 8 7 7 6 11 11 7 9 14 18 21 21 15 15 17 16 14 15 13 11 12 12 13
78 80 82 82 83 83 85 86 86 84 83 82 81 81 82 88 37 22 12 8 9 14 28 7 6 7 5 7 6 11 9 9 16 13 17 22 16 14 14 14 10 10 7 10 10 11 12
76 78 79 81 82 84 86 86 86 84 83 82 82 83 85 30 21 14 9 9 12 22 24 12 10 14 10 7 6 8 13 8 11 12 13 17 13 10 8 8 7 6 7 7 8 9 16
75 77 78 82 84 85 85 85 85 84 84 84 82 81 76 32 21 9 9 12 17 23 10 15 20 17 17 14 8 8 15 15 13 18 19 16 16 12 8 9 8 7 8 12 14 13 14
75 78 82 84 85 85 85 85 85 85 84 84 83 82 48 22 10 10 12 16 26 14 26 19 16 16 19 15 13 9 12 16 10 11 13 17 17 13 8 8 10 9 8 12 23 15 11
76 79 82 84 84 84 85 85 85 85 84 84 80 28 18 14 9 12 16 20 37 30 23 18 16 19 24 22 26 16 12 14 12 10 17 15 15 9 8 7 8 10 11 7 9 8 9
77 78 79 83 84 84 85 85 85 85 84 80 52 35 26 12 9 13 18 25 23 18 15 14 22 19 30 25 31 31 22 11 12 9 9 13 16 9 8 7 7 9 8 11 10 20 18
78 79 80 82 82 84 85 85 86 86 86 82 39 22 14 10 11 16 18 17 17 12 14 20 19 21 30 56 44 42 32 22 19 12 10 10 13 11 9 11 11 9 10 10 9 10 13
79 80 82 83 83 84 85 85 87 88 89 56 38 31 13 11 17 13 16 17 31 25 17 16 15 18 38 45 56 57 52 51 31 21 20 11 11 16 13 8 8 8 10 11 14 21 11
79 82 82 82 84 84 84 85 87 88 88 58 42 27 13 13 20 18 17 16 14 28 24 18 20 22 24 38 61 66 66 51 34 28 30 25 20 20 19 11 9 10 9 10 10 10 20
78 79 79 81 82 83 84 85 87 89 87 62 47 38 26 24 19 23 24 22 25 23 36 19 19 25 28 36 36 69 65 54 37 30 51 34 27 24 20 18 12 14 10 10 10 13 14
76 76 77 79 81 82 83 84 86 88 87 60 49 40 37 42 32 29 26 31 51 34 34 19 29 35 30 36 44 45 46 42 45 40 28 23 34 24 16 13 11 10 10 10 12 12 15
77 80 80 81 81 82 83 83 84 86 87 49 94 87 58 53 40 32 33 40 35 26 22 24 30 28 23 32 41 51 50 46 71 39 31 26 34 28 26 16 14 15 10 10 9 9 10
78 79 78 79 81 81 82 83 83 84 81 63 73 66 94 64 43 42 37 31 28 29 28 22 39 25 24 24 28 24 22 24 31 36 32 34 34 35 35 23 20 20 14 11 10 9 9
81 79 78 78 77 79 81 82 82 83 83 93 88 98 99 85 51 45 41 40 37 33 35 26 26 35 27 19 18 17 18 20 22 24 21 32 38 37 35 31 39 19 13 12 10 9 8
82 80 79 80 78 80 80 79 80 82 83 93 98 99 98 98 60 52 43 46 44 37 34 32 30 37 20 23 30 36 27 26 22 20 20 22 30 35 37 33 26 19 16 15 15 13 9
82 82 84 81 79 79 78 75 80 83 85 96 99 98 99 100 79 53 66 50 65 53 36 30 39 27 24 25 34 52 44 38 22 20 17 19 26 31 36 37 37 23 14 11 12 20 28
83 84 85 84 81 80 79 80 81 82 85 94 99 96 99 99 82 65 71 76 59 64 71 35 40 33 39 66 48 38 36 30 28 25 26 27 30 31 32 37 28 33 18 13 24 57 40
85 85 86 86 82 80 82 81 82 83 84 94 98 98 98 98 84 67 59 67 66 54 70 46 46 58 72 86 73 80 63 37 30 31 36 28 34 32 30 36 44 23 23 38 49 39 35
85 85 86 86 86 83 83 83 83 85 86 89 99 98 97 100 82 61 62 55 55 52 65 54 53 50 41 65 79 56 46 35 45 39 27 34 29 29 28 28 39 26 27 24 23 30 29

GFSGBSN_sfc_rhum_033.txt.gz
RH
73 73 73 74 76 76 75 76 76 78 77 76 78 82 84 83 81 80 80 81 81 79 80 80 84 77 81 62 38 14 64 66 37 29 18 14 18 26 32 36 33 31 43 33 27 33 35
73 73 73 73 74 76 77 77 76 78 80 81 83 84 84 83 83 81 81 81 82 79 79 82 83 74 79 56 19 15 24 37 28 21 16 14 18 19 27 30 33 26 32 34 33 29 33
74 74 73 74 75 77 79 79 79 81 83 84 85 84 84 84 82 82 82 82 81 77 77 83 77 71 60 37 15 14 20 28 19 16 14 12 15 16 23 31 26 25 26 32 34 29 28
73 73 73 74 77 82 84 83 83 84 85 85 84 83 82 82 82 81 82 82 81 75 77 81 74 74 81 24 24 22 18 22 14 14 12 12 14 15 16 21 25 29 27 32 34 32 28
73 74 75 76 80 84 84 85 84 84 85 84 83 82 82 81 82 82 83 82 78 71 75 72 83 83 57 26 25 20 18 17 17 16 14 10 13 16 14 24 30 31 38 30 23 18 19
73 74 76 76 79 85 84 84 84 85 84 83 83 83 82 81 81 81 81 75 64 79 76 54 50 74 43 18 16 17 15 11 15 16 18 17 19 19 19 25 37 39 36 28 24 18 22
72 75 77 77 80 84 84 84 85 86 85 84 83 82 81 81 82 81 76 52 18 34 26 20 19 25 17 19 15 17 14 14 9 17 29 24 28 26 21 21 21 26 29 26 20 17 21
74 77 78 80 84 84 84 85 86 86 85 83 83 82 80 82 84 75 68 17 15 15 19 13 14 14 13 13 19 17 14 18 12 21 22 29 32 22 18 18 19 22 26 27 19 14 18
76 79 82 84 84 84 84 86 86 86 84 82 82 81 81 82 79 51 28 14 10 11 20 16 13 13 14 12 15 18 16 16 12 18 22 31 28 21 22 20 20 21 24 24 23 16 13
80 83 84 84 84 84 85 86 85 85 84 82 81 81 82 84 48 34 23 12 10 11 33 16 12 11 11 11 13 12 13 14 15 16 21 27 22 23 25 22 19 24 18 19 19 20 24
80 82 83 83 84 85 85 85 85 84 83 82 81 81 80 84 64 40 25 10 10 15 32 9 16 10 11 12 8 8 11 14 18 15 20 27 26 26 26 22 18 22 16 17 18 21 23
79 80 81 83 84 85 86 86 85 84 83 82 81 80 81 52 45 32 16 11 14 32 29 12 18 16 15 14 14 7 11 13 12 14 16 20 20 22 22 18 17 16 18 16 18 20 24
78 81 82 84 86 86 86 86 86 85 84 83 81 81 83 48 42 20 21 17 30 30 18 23 23 16 17 22 23 21 11 18 19 20 20 20 19 20 16 20 16 17 19 23 22 22 23
81 83 84 85 86 86 86 87 86 85 84 83 80 84 63 35 31 25 18 28 39 20 26 20 19 16 22 25 30 33 31 16 19 15 25 27 26 19 17 16 16 16 15 22 28 24 18
82 83 84 85 85 85 87 87 87 86 84 83 81 47 37 27 28 20 24 36 28 27 18 18 16 19 24 23 34 41 45 37 17 15 22 25 23 15 15 14 12 14 15 11 19 23 23
82 83 84 86 86 86 87 87 87 86 85 82 73 51 39 25 16 22 32 39 23 16 17 20 28 23 27 35 47 48 54 40 65 42 23 16 24 16 15 15 12 12 11 15 13 26 25
82 83 85 86 86 86 87 87 87 87 87 85 54 48 22 13 16 25 31 24 17 13 20 23 25 25 21 54 53 49 52 54 57 56 40 37 18 15 15 19 20 12 15 12 16 20 28
83 84 85 84 85 85 86 86 88 89 90 66 54 57 25 17 26 26 25 19 30 18 28 28 31 18 27 28 44 45 66 74 57 50 51 40 43 20 17 13 12 12 12 12 16 22 20
82 83 83 83 84 84 85 86 88 90 89 81 68 52 28 25 36 33 28 23 19 39 38 30 34 29 21 51 70 68 63 44 57 53 51 58 51 31 20 16 13 13 11 12 16 24 23
82 82 80 82 83 83 84 86 88 90 89 82 63 61 46 39 36 40 40 33 35 28 34 30 28 24 36 46 46 72 60 43 49 45 60 54 48 48 32 20 19 15 13 11 15 17 16
78 78 78 82 83 83 84 85 87 88 89 79 54 57 62 72 61 57 48 39 39 42 35 25 33 37 41 51 36 59 47 44 36 50 52 51 55 42 33 23 19 16 13 12 13 17 18
80 80 80 82 83 83 83 84 85 86 88 73 73 93 84 92 72 52 51 53 42 38 34 34 35 33 34 44 49 54 43 43 53 50 48 40 54 45 48 25 20 19 12 12 12 12 16
80 79 80 80 80 81 82 83 84 85 85 67 75 65 97 95 70 59 58 51 49 42 37 31 29 31 37 35 36 30 25 25 30 38 48 46 41 55 58 34 27 35 22 12 12 11 12
82 80 78 78 78 82 82 83 81 84 85 96 91 97 99 96 82 63 54 50 60 55 57 40 32 56 40 37 37 27 24 25 23 25 40 47 39 54 60 46 54 33 24 18 12 14 10
82 82 80 80 79 80 79 77 81 85 87 96 96 99 99 100 89 77 58 63 65 55 58 46 38 50 43 43 45 36 39 39 32 25 37 34 38 55 61 52 42 29 26 27 22 48 45
83 84 84 82 80 76 76 80 83 86 88 97 98 98 99 100 95 75 89 70 77 86 65 59 43 35 41 49 62 60 65 54 51 29 33 28 31 49 50 63 57 44 32 29 25 71 43
84 85 85 84 80 79 82 82 82 82 87 97 97 95 99 100 93 89 94 95 84 83 90 63 63 56 78 86 72 63 62 40 52 58 46 38 41 44 43 51 65 35 31 40 53 73 42
85 86 86 84 83 84 84 83 83 84 85 95 97 98 98 99 86 76 78 95 91 88 92 77 74 71 86 90 95 98 95 59 57 52 72 48 54 51 46 55 82 36 30 56 56 38 39
86 86 84 88 86 85 84 83 84 85 86 89 100 99 98 100 92 82 79 74 80 80 88 79 87 80 65 79 88 69 59 62 51 88 54 71 68 81 53 69 43 51 42 30 31 36 38

GFSGBSN_sfc_rhum_036.txt.gz
RH
73 73 73 74 75 77 78 78 78 79 79 78 80 83 83 83 81 80 80 80 80 79 78 77 77 80 90 82 48 21 52 67 44 32 26 22 20 27 40 42 45 51 48 43 37 34 34
74 74 74 75 76 77 78 78 78 79 80 81 83 82 81 82 82 82 81 81 82 79 77 76 78 76 90 60 22 23 31 52 33 30 24 20 18 18 30 32 43 38 40 37 32 34 36
74 74 75 76 77 78 79 79 79 80 81 82 84 82 82 81 81 82 82 81 81 80 78 75 82 71 84 42 18 20 32 45 34 25 26 19 15 20 22 32 25 28 39 33 36 32 33
74 75 76 77 77 80 82 80 82 85 86 85 84 83 82 80 79 80 83 82 80 79 76 75 80 70 88 42 40 36 29 25 30 24 16 17 14 21 25 19 19 34 36 46 35 29 30
74 76 77 77 78 84 84 84 84 85 85 85 84 83 82 80 80 81 82 82 78 70 77 75 86 85 89 43 44 33 25 22 24 25 18 11 17 23 24 24 28 36 44 44 35 33 31
75 77 77 78 78 83 84 84 85 86 86 84 83 83 83 81 81 81 80 81 70 78 75 64 62 88 48 21 18 14 24 21 22 20 20 18 21 29 26 33 35 41 48 41 36 26 33
75 77 77 78 80 84 84 84 85 85 85 84 83 83 82 81 80 80 85 46 17 23 19 21 19 37 21 14 10 17 18 21 22 24 31 26 26 30 25 23 25 30 34 37 29 22 23
76 78 79 80 83 85 85 85 85 85 84 83 82 82 81 81 81 82 78 23 20 17 23 14 13 15 13 13 17 13 17 23 23 28 26 40 33 23 23 21 22 25 29 34 28 25 26
77 80 82 84 85 86 85 85 85 85 84 83 82 81 81 82 85 54 46 28 19 21 27 19 16 15 15 17 17 15 16 22 24 23 26 34 33 24 24 24 24 25 28 27 34 26 23
78 84 85 85 86 86 86 86 86 85 84 83 81 79 82 83 50 60 46 28 22 18 39 25 19 15 12 13 18 15 10 19 23 18 19 26 25 24 28 26 22 29 20 21 23 29 36
80 84 85 85 85 86 86 86 86 86 84 81 80 77 79 85 88 64 31 38 24 25 26 19 19 13 12 20 20 21 19 16 24 23 18 23 24 29 28 28 23 24 20 21 22 30 38
82 83 82 84 85 86 87 87 86 86 84 81 80 79 81 72 81 59 43 30 24 31 37 19 17 17 15 18 19 24 25 25 16 22 21 16 21 23 26 22 23 21 23 25 24 31 40
80 81 82 85 87 88 88 88 87 86 84 81 80 82 86 65 38 38 40 31 32 35 20 24 22 18 17 23 22 30 35 43 46 34 28 21 19 18 23 29 25 26 34 42 41 36 35
81 86 86 87 88 88 88 88 88 86 84 83 82 84 80 60 67 51 40 38 48 24 30 20 23 21 24 22 29 32 37 47 58 69 30 29 29 20 18 30 31 29 29 43 51 41 29
82 85 86 87 88 88 87 88 88 86 85 84 83 74 66 45 42 48 34 50 42 27 21 25 26 31 28 32 33 41 44 49 52 64 90 34 25 17 17 19 24 28 31 22 24 49 25
81 82 84 87 87 87 86 87 88 88 87 86 82 88 63 39 36 30 38 53 38 18 24 26 35 33 36 46 42 48 47 37 48 52 58 62 49 17 16 17 20 22 18 25 26 32 38
79 81 84 86 86 86 86 87 89 89 89 88 90 79 48 24 26 35 43 44 26 30 30 36 43 46 32 40 44 54 47 44 54 59 61 60 69 30 20 20 22 26 19 21 21 25 26
80 84 85 85 85 86 86 87 89 91 92 86 98 93 47 30 37 45 47 36 39 42 38 36 38 36 34 59 44 44 48 65 45 55 85 60 80 84 29 16 16 19 20 17 18 24 29
82 84 84 83 84 85 86 87 90 91 91 89 99 95 52 41 73 70 51 44 34 46 49 45 40 34 39 66 62 58 60 45 44 60 91 89 86 96 39 24 18 18 21 15 20 21 22
81 80 80 82 83 83 85 87 90 91 90 98 99 94 76 70 65 79 83 68 52 33 36 35 37 37 47 54 54 59 61 48 42 42 68 86 92 92 76 42 35 24 18 17 13 19 18
78 78 77 79 81 80 83 85 87 89 89 97 94 90 94 96 84 91 92 68 59 58 41 35 43 44 48 63 44 58 43 40 41 61 73 84 86 60 50 40 40 38 21 17 17 15 17
80 78 78 80 80 81 83 85 86 88 88 97 97 94 96 90 93 87 76 68 65 71 63 52 67 45 39 57 52 60 46 48 56 56 73 63 72 57 52 40 37 28 23 22 13 14 18
80 78 78 79 81 82 81 84 86 86 90 90 95 89 96 96 95 97 74 68 67 56 72 56 64 61 54 48 42 45 45 45 45 60 69 64 68 73 73 48 32 41 34 25 14 14 14
84 81 79 79 79 78 76 81 85 87 88 98 96 96 100 96 97 95 92 81 71 71 75 57 65 76 55 44 47 45 38 35 30 36 44 59 74 69 71 57 54 42 33 36 46 47 46
86 83 81 80 79 76 79 82 84 88 89 100 98 100 99 100 95 93 91 92 91 75 72 70 58 68 70 67 67 61 56 49 41 38 39 45 55 69 70 62 49 49 47 39 51 59 45
86 86 84 80 78 82 82 82 83 88 90 99 99 98 99 100 97 88 95 94 97 96 82 66 63 64 65 89 79 66 92 96 92 62 33 60 41 57 58 75 75 64 44 36 42 69 43
86 86 85 81 82 82 83 82 82 84 88 98 99 96 99 100 91 94 96 98 92 94 98 88 88 76 80 98 98 99 96 90 95 100 76 84 53 48 55 76 70 53 46 32 72 68 43
87 86 84 84 84 83 82 83 84 85 86 96 98 98 99 99 91 87 84 95 93 96 99 88 86 87 94 94 94 99 99 90 90 97 98 98 94 85 75 91 97 61 56 61 49 39 37
86 85 85 85 84 84 85 85 86 88 89 89 100 99 99 100 96 90 83 84 92 89 95 89 92 94 87 94 93 93 97 88 75 97 71 96 94 98 93 94 75 83 87 53 49 44 46